Time,TemperatureF,DewpointF,PressureIn,WindDirection,WindDirectionDegrees,WindSpeedMPH,WindSpeedGustMPH,Humidity,HourlyPrecipIn,Conditions,Clouds,dailyrainin,SoftwareType,DateUTC
2013-04-06 08:10:00,29.3,23.3,30.28,SE,138,0.0,0.0,78,0.00,,---,0.00,VWS V14.01,2013-04-06 12:10:00,
2013-04-06 08:15:00,31.8,24.8,30.28,SE,138,0.0,0.0,75,0.00,,---,0.00,VWS V14.01,2013-04-06 12:15:00,
2013-04-06 08:20:00,32.6,23.9,30.28,SE,138,0.0,0.0,70,0.00,,---,0.00,VWS V14.01,2013-04-06 12:20:00,
2013-04-06 08:25:00,33.5,24.8,30.28,SE,137,0.0,0.0,70,0.00,,---,0.00,VWS V14.01,2013-04-06 12:25:00,
2013-04-06 08:30:00,34.9,25.1,30.28,SE,137,0.0,0.0,67,0.00,,---,0.00,VWS V14.01,2013-04-06 12:30:00,
2013-04-06 08:35:00,35.4,24.8,30.28,SE,135,0.0,1.0,65,0.00,,---,0.00,VWS V14.01,2013-04-06 12:35:00,
2013-04-06 08:40:00,35.1,24.9,30.28,SE,136,0.0,1.0,66,0.00,,---,0.00,VWS V14.01,2013-04-06 12:40:00,
2013-04-06 08:45:00,35.3,24.7,30.28,SSE,151,0.0,2.0,65,0.00,,---,0.00,VWS V14.01,2013-04-06 12:45:00,
2013-04-06 08:50:00,35.1,24.5,30.28,South,186,1.0,2.0,65,0.00,,---,0.00,VWS V14.01,2013-04-06 12:50:00,
2013-04-06 08:51:00,35.0,24.4,30.28,SE,145,4.0,4.0,65,0.00,,---,0.00,VWS V14.01,2013-04-06 12:51:00,
2013-04-06 08:56:00,34.9,24.3,30.28,ESE,111,0.0,4.0,65,0.00,,---,0.00,VWS V14.01,2013-04-06 12:56:00,
2013-04-06 09:00:00,35.3,24.7,30.28,SE,126,0.0,4.0,65,0.00,,---,0.00,VWS V14.01,2013-04-06 13:00:00,
2013-04-06 09:01:00,36.0,25.4,30.27,SE,126,0.0,0.0,65,0.00,,---,0.00,VWS V14.01,2013-04-06 13:01:00,
2013-04-06 09:07:00,36.4,23.5,30.28,ESE,117,0.0,1.0,59,0.00,,---,0.00,VWS V14.01,2013-04-06 13:07:00,
2013-04-06 09:10:00,36.2,23.7,30.28,East,82,0.0,1.0,60,0.00,,---,0.00,VWS V14.01,2013-04-06 13:10:00,
2013-04-06 09:12:00,36.4,23.9,30.28,NW,322,0.0,1.0,60,0.00,,---,0.00,VWS V14.01,2013-04-06 13:12:00,
2013-04-06 09:17:00,36.8,24.2,30.28,East,92,0.0,1.0,60,0.00,,---,0.00,VWS V14.01,2013-04-06 13:17:00,
2013-04-06 09:20:00,37.0,23.6,30.28,East,90,0.0,1.0,58,0.00,,---,0.00,VWS V14.01,2013-04-06 13:20:00,
2013-04-06 09:22:00,37.3,23.5,30.28,NNE,22,0.0,0.0,57,0.00,,---,0.00,VWS V14.01,2013-04-06 13:22:00,
2013-04-06 09:27:00,37.9,22.8,30.28,SSW,193,1.0,2.0,54,0.00,,---,0.00,VWS V14.01,2013-04-06 13:27:00,
2013-04-06 09:30:00,37.9,22.3,30.28,SE,139,0.0,2.0,53,0.00,,---,0.00,VWS V14.01,2013-04-06 13:30:00,
2013-04-06 09:32:00,38.1,21.6,30.27,SSW,200,0.0,1.0,51,0.00,,---,0.00,VWS V14.01,2013-04-06 13:32:00,
2013-04-06 09:37:00,38.8,21.3,30.27,SSE,159,0.0,2.0,49,0.00,,---,0.00,VWS V14.01,2013-04-06 13:37:00,
2013-04-06 09:40:00,39.1,22.0,30.27,SE,146,1.0,2.0,50,0.00,,---,0.00,VWS V14.01,2013-04-06 13:40:00,
2013-04-06 09:42:00,39.5,21.5,30.27,WSW,241,0.0,1.0,48,0.00,,---,0.00,VWS V14.01,2013-04-06 13:42:00,
2013-04-06 09:47:00,39.5,20.5,30.27,SSW,211,0.0,2.0,46,0.00,,---,0.00,VWS V14.01,2013-04-06 13:47:00,
2013-04-06 09:50:00,39.6,21.0,30.27,SSW,206,0.0,2.0,47,0.00,,---,0.00,VWS V14.01,2013-04-06 13:50:00,
2013-04-06 09:52:00,39.9,20.3,30.27,SW,221,0.0,4.0,45,0.00,,---,0.00,VWS V14.01,2013-04-06 13:52:00,
2013-04-06 09:57:00,40.3,20.1,30.27,SSW,213,0.0,4.0,44,0.00,,---,0.00,VWS V14.01,2013-04-06 13:57:00,
2013-04-06 10:00:00,40.4,20.2,30.27,NE,34,0.0,4.0,44,0.00,,---,0.00,VWS V14.01,2013-04-06 14:00:00,
2013-04-06 10:02:00,41.0,21.3,30.27,NE,39,0.0,1.0,45,0.00,,---,0.00,VWS V14.01,2013-04-06 14:02:00,